Location: Round Knob
(37.2473°N, 88.7376°W)
Time: 14:37:35
(UTC+00:00)

SAR-Lupe-1 - Pass Details

Date: 29 October 2020
Orbit: 480 x 485 km, 98.2° (Epoch: 26 November)

Event Time Altitude Azimuth Distance (km) Brightness Sun altitude
Rises 23:41:40 0° 15° (NNE) 2,550 7.5 -8.9°
Reaches altitude 10° 23:43:45 10° 18° (NNE) 1,666 6.5 -9.3°
Maximum altitude 23:47:19 69° 102° (ESE) 521 4.0 -10.0°
Drops below altitude 10° 23:50:51 10° 186° (S) 1,656 7.0 -10.7°
Sets 23:52:55 0° 189° (S) 2,532 7.9 -11.1°
